User: anonymous   Login
Location: Bishop�s Knoyle
(51.0728°N, 2.1714°W)
Time: 18:45:49
(UTC+00:00)
Language:

Cosmos 2180 Rocket - Orbit

View from above orbital plane
View from above orbital plane
View from above satellite
View from above satellite

Ground track
Ground track

The orbit data is extracted from the following two-line orbital elements,

1 21876U 92008B   20330.91837890 +.00000057 +00000-0 +42430-4 0  9995
2 21876 082.9271 262.3934 0035888 121.7206 302.6138 13.75668634444076
Epoch (UTC): 25 November 2020 22:02:27
Eccentricity: 0.0035888
inclination: 82.9271°
perigee height: 953 km
apogee height: 1005 km
right ascension of ascending node: 262.3934°
argument of perigee: 121.7206°
revolutions per day: 13.75668634
mean anomaly at epoch: 302.6138°
orbit number at epoch: 44407

The dashed part of the orbit path shows where the satellite is in the earth's shadow,  

DLR